Temp
-6 -6 -6 -6 -6 -6 -5 -5 -5 -5 -5 -5 -5 -6 -6 -6 -6 -6 -6 -5 -5 -5 -5 -5 -5 -5 -5 -5 -5 -5 -6 -6 -5 -5 -5 -5 -5 -5 -5 -5 -5 -5 -5 -5 -5 -5 -5 -5 -5 -5 -5 -5 -5 -5 -5 -5 -5 -5 -5 -5 -5 -5 -5
-6 -6 -6 -6 -6 -6 -5 -5 -5 -5 -5 -5 -5 -5 -6 -6 -6 -6 -6 -5 -5 -5 -5 -5 -5 -5 -5 -5 -5 -5 -6 -6 -5 -5 -5 -5 -5 -5 -5 -5 -5 -5 -5 -5 -5 -5 -5 -5 -5 -5 -5 -5 -5 -5 -5 -5 -5 -5 -5 -5 -5 -5 -5
-6 -6 -6 -6 -6 -6 -5 -5 -5 -5 -5 -5 -5 -5 -5 -6 -6 -6 -6 -5 -5 -5 -5 -5 -5 -5 -5 -5 -5 -5 -6 -5 -5 -5 -5 -5 -5 -5 -5 -5 -5 -5 -5 -5 -5 -5 -5 -5 -5 -5 -5 -5 -5 -5 -5 -5 -5 -5 -5 -5 -5 -5 -5
-6 -6 -6 -6 -6 -6 -5 -5 -5 -5 -5 -5 -5 -5 -5 -5 -6 -6 -5 -5 -5 -5 -5 -5 -5 -5 -5 -5 -5 -5 -5 -5 -5 -5 -5 -5 -5 -5 -5 -6 -6 -5 -5 -5 -5 -5 -5 -5 -5 -5 -5 -5 -5 -5 -5 -5 -5 -5 -5 -5 -5 -5 -5
-7 -7 -6 -6 -6 -6 -6 -6 -6 -6 -6 -5 -5 -5 -5 -6 -6 -5 -5 -5 -5 -5 -5 -5 -5 -5 -4 -5 -5 -5 -5 -5 -5 -5 -5 -5 -5 -5 -5 -5 -6 -6 -5 -5 -5 -5 -5 -5 -5 -5 -5 -5 -5 -5 -5 -5 -5 -5 -5 -5 -5 -5 -5
-8 -7 -7 -7 -7 -6 -6 -6 -6 -6 -6 -5 -5 -5 -6 -6 -6 -5 -5 -5 -5 -5 -5 -5 -5 -5 -4 -4 -5 -5 -5 -5 -5 -4 -5 -5 -5 -5 -5 -5 -5 -6 -5 -5 -5 -5 -5 -5 -5 -5 -5 -5 -5 -5 -5 -5 -5 -5 -5 -5 -5 -5 -5
-8 -8 -7 -7 -7 -7 -6 -6 -6 -6 -6 -5 -5 -5 -6 -6 -6 -5 -5 -5 -5 -5 -5 -5 -5 -5 -5 -4 -4 -5 -5 -5 -5 -4 -4 -5 -5 -5 -5 -5 -5 -5 -5 -5 -5 -5 -5 -5 -5 -5 -5 -5 -5 -5 -5 -5 -5 -5 -5 -5 -5 -5 -5
-8 -8 -8 -7 -7 -7 -7 -7 -7 -6 -6 -5 -5 -6 -6 -6 -6 -6 -6 -6 -6 -5 -5 -5 -5 -5 -5 -5 -5 -5 -5 -5 -5 -5 -4 -5 -5 -5 -5 -5 -5 -5 -5 -5 -5 -5 -5 -5 -5 -5 -5 -5 -5 -5 -5 -5 -5 -5 -5 -5 -5 -5 -5
-8 -8 -8 -8 -8 -8 -8 -7 -7 -7 -6 -6 -6 -6 -6 -7 -6 -6 -6 -6 -6 -5 -5 -5 -5 -5 -5 -4 -5 -5 -5 -5 -5 -5 -5 -5 -5 -5 -5 -5 -5 -5 -5 -5 -5 -5 -5 -5 -5 -5 -5 -5 -5 -5 -5 -5 -5 -5 -5 -5 -5 -5 -5
-8 -8 -8 -8 -8 -8 -8 -8 -7 -7 -7 -6 -6 -7 -7 -7 -7 -6 -6 -6 -6 -5 -5 -5 -5 -5 -5 -5 -5 -5 -5 -5 -5 -5 -5 -5 -5 -5 -5 -5 -5 -5 -5 -5 -5 -5 -5 -4 -5 -5 -5 -5 -5 -5 -5 -5 -5 -5 -5 -5 -5 -5 -5
-8 -8 -8 -8 -8 -8 -8 -8 -8 -7 -7 -7 -7 -7 -6 -6 -7 -6 -6 -7 -6 -5 -5 -5 -5 -5 -5 -5 -5 -5 -5 -5 -5 -5 -5 -5 -5 -5 -5 -5 -5 -5 -5 -5 -5 -5 -4 -4 -4 -5 -5 -5 -4 -4 -4 -4 -4 -4 -4 -5 -5 -5 -5
-8 -8 -8 -8 -8 -8 -8 -8 -8 -8 -7 -7 -7 -7 -6 -6 -6 -7 -6 -7 -6 -6 -6 -6 -6 -5 -5 -5 -5 -5 -5 -5 -5 -5 -5 -5 -5 -5 -5 -5 -4 -4 -5 -5 -5 -5 -4 -4 -4 -4 -4 -4 -4 -4 -4 -4 -4 -4 -4 -4 -5 -5 -5
-8 -8 -8 -8 -8 -8 -8 -8 -8 -8 -8 -8 -7 -7 -7 -7 -7 -7 -7 -7 -7 -7 -6 -6 -6 -6 -6 -6 -5 -5 -5 -5 -5 -5 -5 -5 -5 -5 -5 -5 -4 -4 -4 -4 -4 -4 -4 -4 -4 -4 -4 -4 -4 -4 -4 -4 -4 -4 -4 -4 -4 -5 -5
-9 -9 -9 -9 -9 -9 -9 -8 -8 -8 -8 -8 -8 -7 -7 -7 -7 -7 -7 -7 -7 -7 -7 -7 -7 -7 -6 -6 -6 -6 -6 -5 -5 -5 -5 -5 -5 -5 -5 -5 -5 -5 -4 -4 -4 -4 -4 -4 -4 -4 -4 -4 -4 -4 -4 -4 -4 -4 -4 -4 -4 -4 -4
-9 -9 -9 -9 -9 -9 -9 -9 -8 -8 -8 -8 -8 -8 -7 -7 -7 -7 -7 -7 -7 -7 -7 -7 -7 -7 -7 -6 -6 -6 -6 -6 -6 -5 -5 -5 -5 -5 -5 -5 -5 -5 -5 -4 -4 -4 -4 -4 -4 -4 -4 -4 -4 -4 -4 -4 -4 -4 -4 -4 -4 -4 -4
-9 -9 -9 -9 -9 -9 -9 -9 -9 -8 -8 -8 -8 -8 -8 -7 -7 -7 -7 -7 -7 -7 -7 -7 -7 -7 -6 -6 -6 -6 -6 -6 -5 -5 -5 -5 -5 -5 -5 -5 -5 -5 -5 -5 -5 -4 -4 -4 -4 -4 -4 -4 -4 -4 -4 -4 -4 -4 -4 -4 -3 -3 -3
-9 -9 -9 -9 -9 -9 -9 -9 -9 -9 -9 -9 -9 -9 -8 -8 -8 -8 -8 -8 -8 -7 -7 -7 -7 -7 -6 -6 -6 -6 -6 -6 -5 -5 -5 -5 -5 -5 -5 -5 -5 -5 -5 -5 -5 -5 -5 -5 -4 -4 -4 -4 -4 -4 -4 -4 -4 -4 -4 -4 -3 -3 -3
-9 -9 -9 -9 -9 -9 -9 -9 -9 -9 -9 -9 -9 -9 -9 -9 -8 -8 -8 -8 -8 -8 -7 -7 -7 -6 -6 -6 -6 -6 -6 -6 -6 -6 -6 -6 -5 -5 -5 -5 -5 -5 -5 -5 -5 -5 -5 -5 -5 -5 -5 -5 -4 -4 -4 -4 -4 -4 -4 -4 -3 -3 -3
-9 -9 -9 -9 -9 -9 -9 -9 -9 -9 -9 -9 -9 -9 -9 -9 -9 -9 -9 -8 -8 -8 -7 -7 -7 -6 -6 -6 -6 -6 -6 -6 -7 -7 -7 -6 -6 -6 -5 -5 -5 -5 -5 -5 -5 -5 -5 -5 -5 -5 -5 -5 -5 -5 -5 -5 -5 -4 -5 -4 -4 -4 -3
-9 -9 -9 -9 -9 -9 -9 -9 -9 -9 -9 -10 -10 -9 -9 -10 -10 -9 -9 -9 -8 -8 -7 -7 -7 -7 -6 -6 -7 -6 -7 -7 -7 -7 -7 -7 -6 -6 -5 -5 -5 -5 -6 -5 -5 -5 -5 -5 -5 -5 -5 -5 -5 -5 -5 -5 -5 -5 -5 -5 -5 -4 -4
-9 -9 -9 -9 -9 -9 -9 -9 -9 -9 -9 -9 -9 -9 -9 -10 -10 -9 -9 -9 -9 -8 -8 -7 -7 -7 -7 -6 -6 -6 -7 -7 -7 -7 -7 -7 -7 -6 -6 -6 -6 -6 -6 -6 -5 -5 -5 -5 -5 -5 -5 -5 -5 -5 -5 -5 -5 -5 -5 -5 -5 -5 -4
-10 -9 -9 -9 -9 -9 -9 -9 -9 -9 -9 -9 -9 -9 -9 -9 -9 -9 -9 -9 -9 -9 -9 -8 -8 -7 -7 -6 -7 -7 -7 -7 -7 -7 -7 -7 -7 -7 -7 -6 -6 -6 -6 -6 -6 -6 -6 -6 -6 -5 -5 -5 -5 -5 -5 -5 -5 -5 -5 -6 -6 -5 -5
-10 -10 -10 -9 -9 -9 -9 -9 -9 -9 -9 -9 -9 -9 -9 -9 -9 -9 -9 -9 -9 -9 -9 -8 -8 -8 -7 -7 -7 -8 -7 -7 -7 -7 -7 -7 -7 -7 -7 -7 -6 -6 -6 -7 -7 -7 -7 -7 -6 -6 -6 -6 -5 -5 -5 -5 -5 -5 -5 -6 -6 -5 -5
-10 -10 -10 -10 -10 -10 -9 -9 -9 -9 -9 -9 -9 -9 -9 -9 -9 -9 -9 -9 -9 -8 -8 -8 -8 -8 -8 -8 -7 -8 -7 -7 -7 -7 -7 -7 -7 -7 -7 -6 -6 -6 -6 -7 -7 -7 -7 -7 -7 -6 -6 -6 -6 -6 -5 -5 -5 -6 -6 -6 -6 -5 -5
-11 -10 -10 -10 -10 -10 -10 -10 -9 -9 -9 -9 -9 -9 -9 -9 -9 -9 -9 -9 -9 -8 -8 -8 -8 -8 -8 -8 -8 -8 -8 -7 -7 -7 -7 -7 -7 -7 -7 -7 -7 -7 -7 -7 -7 -7 -7 -7 -7 -7 -6 -6 -6 -6 -6 -5 -5 -5 -5 -6 -6 -6 -5
-11 -11 -11 -10 -10 -10 -10 -10 -10 -10 -9 -9 -9 -9 -9 -9 -9 -9 -9 -9 -9 -8 -8 -8 -8 -8 -8 -8 -8 -7 -7 -7 -7 -7 -7 -7 -7 -7 -7 -7 -7 -7 -7 -7 -7 -7 -7 -7 -7 -7 -6 -6 -6 -6 -6 -6 -6 -6 -5 -5 -6 -6 -5
-12 -11 -11 -11 -11 -11 -11 -10 -10 -10 -10 -10 -10 -9 -9 -9 -9 -9 -9 -9 -9 -9 -8 -8 -8 -8 -8 -8 -8 -7 -7 -7 -7 -7 -7 -7 -7 -7 -7 -7 -7 -7 -7 -7 -7 -7 -7 -7 -7 -7 -6 -6 -6 -6 -6 -6 -6 -6 -6 -6 -5 -5 -5
-12 -12 -12 -11 -11 -11 -11 -11 -10 -10 -10 -10 -10 -10 -10 -10 -9 -9 -9 -9 -9 -9 -9 -8 -8 -8 -8 -8 -8 -8 -8 -7 -7 -7 -7 -7 -7 -7 -7 -7 -7 -7 -7 -7 -7 -7 -7 -7 -7 -7 -6 -6 -6 -6 -6 -6 -6 -6 -6 -6 -6 -6 -5
-12 -12 -12 -12 -12 -11 -11 -11 -11 -11 -11 -10 -10 -10 -10 -10 -10 -10 -10 -9 -9 -9 -9 -9 -8 -8 -8 -8 -8 -8 -8 -8 -7 -7 -7 -7 -7 -7 -7 -7 -7 -7 -7 -7 -7 -7 -7 -7 -7 -7 -6 -7 -7 -6 -6 -6 -6 -6 -6 -6 -6 -6 -6
-13 -12 -12 -12 -12 -12 -12 -12 -11 -11 -11 -11 -10 -10 -10 -10 -10 -10 -10 -10 -10 -9 -9 -9 -9 -8 -8 -8 -8 -8 -8 -8 -8 -8 -8 -8 -7 -8 -8 -7 -7 -7 -7 -7 -7 -6 -6 -6 -6 -6 -6 -7 -7 -7 -7 -7 -6 -6 -6 -5 -5 -6 -6
-13 -13 -12 -12 -12 -12 -12 -12 -12 -12 -11 -11 -11 -10 -10 -10 -10 -10 -10 -10 -10 -10 -9 -9 -9 -9 -9 -8 -8 -8 -8 -8 -8 -8 -8 -8 -8 -8 -8 -8 -7 -7 -7 -7 -7 -6 -6 -6 -6 -6 -6 -6 -7 -7 -7 -7 -7 -6 -6 -6 -6 -6 -6
-13 -13 -13 -12 -12 -12 -12 -12 -12 -12 -12 -11 -11 -11 -11 -10 -10 -10 -10 -10 -10 -10 -10 -9 -9 -9 -9 -9 -9 -8 -8 -8 -8 -8 -8 -8 -8 -8 -8 -8 -8 -8 -8 -7 -7 -7 -7 -6 -6 -6 -6 -6 -6 -6 -6 -7 -7 -7 -6 -6 -6 -6 -5
-14 -13 -13 -13 -13 -12 -12 -12 -12 -12 -12 -12 -11 -11 -11 -11 -11 -10 -10 -10 -10 -10 -10 -10 -9 -9 -9 -9 -9 -9 -9 -8 -8 -8 -8 -8 -8 -8 -8 -7 -7 -8 -8 -8 -8 -8 -7 -7 -7 -7 -6 -6 -6 -6 -6 -7 -7 -7 -6 -6 -6 -5 -5
-14 -14 -13 -13 -13 -13 -13 -12 -12 -12 -12 -12 -12 -11 -11 -11 -11 -11 -11 -10 -10 -10 -10 -10 -9 -9 -9 -9 -9 -9 -9 -9 -9 -8 -8 -8 -8 -8 -8 -8 -7 -8 -8 -8 -8 -8 -8 -8 -8 -7 -7 -6 -6 -7 -7 -7 -7 -7 -6 -6 -6 -6 -6
-14 -14 -14 -13 -13 -13 -13 -13 -13 -12 -12 -12 -12 -12 -11 -11 -11 -11 -11 -11 -11 -10 -10 -10 -10 -10 -9 -9 -9 -9 -9 -9 -9 -9 -8 -8 -8 -8 -8 -8 -8 -8 -8 -8 -8 -8 -8 -8 -8 -8 -8 -7 -7 -7 -7 -7 -7 -7 -7 -7 -6 -6 -6
-14 -14 -14 -14 -13 -13 -13 -13 -13 -13 -13 -12 -12 -12 -12 -12 -12 -11 -11 -11 -11 -10 -10 -10 -10 -10 -10 -10 -9 -9 -9 -9 -9 -9 -8 -8 -8 -8 -8 -8 -8 -8 -8 -8 -8 -8 -8 -8 -8 -8 -8 -7 -7 -7 -7 -7 -7 -7 -7 -7 -6 -6 -6
-14 -14 -14 -14 -14 -14 -14 -13 -13 -13 -13 -13 -13 -12 -12 -12 -12 -12 -12 -11 -11 -11 -10 -10 -10 -10 -10 -10 -10 -10 -9 -9 -9 -9 -9 -8 -8 -8 -8 -8 -8 -8 -8 -8 -8 -8 -8 -8 -8 -8 -8 -8 -7 -7 -7 -7 -7 -7 -7 -7 -7 -6 -6
-15 -15 -15 -14 -14 -14 -14 -14 -14 -14 -13 -13 -13 -13 -12 -12 -12 -12 -12 -12 -11 -11 -11 -10 -10 -10 -10 -10 -10 -10 -10 -10 -9 -9 -9 -9 -9 -8 -8 -8 -8 -8 -8 -8 -8 -8 -8 -8 -8 -8 -8 -8 -8 -8 -8 -8 -8 -7 -7 -7 -7 -7 -6
Height
5896 5899 5901 5903 5904 5906 5906 5907 5909 5911 5911 5913 5915 5917 5918 5920 5921 5921 5922 5923 5925 5926 5928 5929 5931 5933 5934 5936 5938 5939 5941 5942 5943 5945 5946 5947 5949 5950 5952 5953 5954 5955 5957 5958 5959 5959 5961 5962 5963 5963 5964 5964 5965 5966 5967 5967 5968 5969 5970 5970 5971 5972 5973
5896 5898 5899 5900 5902 5904 5906 5906 5908 5909 5910 5912 5914 5916 5917 5919 5920 5920 5921 5922 5923 5925 5926 5928 5930 5931 5933 5935 5937 5938 5939 5941 5942 5944 5945 5947 5948 5950 5951 5953 5954 5955 5957 5957 5958 5959 5960 5962 5963 5964 5964 5965 5966 5966 5967 5968 5969 5970 5970 5971 5972 5972 5973
5894 5896 5897 5898 5900 5902 5903 5905 5906 5908 5909 5911 5913 5914 5916 5918 5919 5920 5920 5920 5921 5923 5925 5927 5929 5930 5932 5935 5936 5937 5938 5940 5941 5943 5944 5946 5947 5949 5950 5952 5954 5955 5956 5957 5958 5959 5961 5962 5963 5964 5964 5965 5966 5967 5967 5968 5969 5970 5970 5971 5972 5973 5974
5891 5894 5895 5897 5899 5901 5903 5904 5905 5907 5909 5911 5912 5913 5914 5916 5918 5919 5919 5919 5921 5923 5924 5927 5928 5929 5931 5933 5935 5936 5937 5938 5940 5942 5944 5945 5946 5948 5949 5951 5953 5955 5956 5957 5958 5960 5961 5962 5962 5963 5964 5965 5965 5966 5967 5968 5969 5969 5970 5971 5972 5973 5974
5887 5891 5894 5895 5898 5901 5903 5903 5905 5907 5909 5910 5910 5911 5913 5914 5916 5917 5917 5919 5922 5923 5924 5926 5928 5929 5931 5932 5934 5936 5936 5937 5938 5940 5942 5944 5946 5947 5948 5950 5952 5954 5955 5957 5958 5959 5960 5961 5962 5963 5964 5964 5965 5966 5967 5968 5968 5969 5970 5970 5971 5972 5973
5886 5889 5892 5894 5896 5899 5901 5902 5904 5905 5907 5908 5908 5908 5910 5913 5914 5915 5916 5918 5920 5922 5923 5925 5927 5929 5931 5932 5934 5935 5936 5937 5938 5939 5941 5943 5945 5946 5947 5949 5951 5953 5955 5956 5957 5958 5959 5960 5961 5962 5963 5964 5964 5965 5966 5967 5968 5968 5969 5970 5971 5971 5972
5887 5888 5890 5892 5894 5896 5898 5900 5902 5904 5906 5906 5906 5906 5908 5910 5912 5913 5915 5917 5918 5920 5922 5924 5926 5929 5930 5932 5934 5935 5936 5937 5938 5939 5940 5942 5943 5945 5946 5948 5950 5951 5953 5955 5956 5958 5958 5959 5960 5961 5962 5963 5964 5965 5965 5966 5967 5968 5968 5969 5970 5970 5971
5886 5887 5888 5891 5892 5893 5894 5895 5898 5901 5902 5902 5903 5905 5907 5910 5912 5913 5914 5915 5916 5917 5919 5921 5923 5926 5929 5930 5932 5934 5936 5937 5938 5939 5940 5941 5943 5944 5946 5947 5949 5950 5952 5953 5955 5956 5957 5958 5959 5960 5961 5962 5963 5964 5965 5965 5966 5967 5968 5968 5969 5970 5971
5885 5886 5887 5889 5891 5891 5892 5892 5894 5896 5898 5898 5901 5903 5906 5909 5910 5911 5912 5914 5916 5917 5917 5919 5920 5923 5926 5928 5930 5932 5933 5935 5937 5939 5941 5942 5943 5944 5945 5947 5948 5949 5951 5952 5953 5955 5956 5957 5958 5959 5960 5961 5962 5963 5964 5964 5965 5966 5967 5967 5968 5969 5970
5883 5884 5886 5887 5889 5890 5891 5891 5892 5893 5895 5898 5900 5902 5903 5905 5907 5909 5912 5915 5917 5916 5916 5917 5919 5922 5924 5926 5928 5930 5932 5934 5935 5937 5939 5941 5943 5944 5945 5946 5947 5949 5950 5950 5952 5953 5954 5956 5957 5958 5959 5960 5961 5962 5963 5964 5964 5965 5966 5966 5967 5968 5969
5881 5882 5884 5885 5887 5888 5889 5890 5891 5892 5894 5897 5899 5900 5902 5903 5905 5907 5910 5913 5915 5914 5914 5917 5919 5921 5922 5925 5926 5928 5931 5932 5934 5935 5937 5939 5941 5943 5944 5945 5947 5948 5949 5950 5951 5952 5953 5954 5956 5957 5958 5959 5960 5961 5962 5963 5964 5964 5965 5966 5966 5967 5968
5878 5880 5882 5883 5885 5886 5888 5889 5890 5891 5893 5894 5897 5899 5900 5902 5903 5906 5908 5909 5912 5913 5914 5916 5918 5919 5920 5922 5924 5926 5928 5930 5932 5933 5935 5936 5938 5940 5942 5944 5945 5947 5948 5949 5950 5951 5952 5953 5955 5956 5957 5958 5959 5960 5961 5962 5963 5964 5964 5965 5966 5966 5967
5876 5877 5879 5881 5882 5884 5885 5887 5888 5890 5891 5892 5894 5896 5898 5900 5901 5903 5904 5906 5909 5912 5913 5915 5917 5918 5919 5920 5922 5924 5926 5927 5929 5930 5932 5934 5936 5937 5940 5942 5944 5945 5947 5948 5949 5950 5951 5952 5954 5955 5956 5957 5958 5959 5960 5961 5962 5963 5963 5964 5965 5965 5966
5873 5874 5876 5878 5880 5881 5883 5885 5886 5888 5889 5890 5891 5893 5895 5897 5899 5901 5902 5903 5905 5908 5910 5913 5915 5917 5917 5918 5920 5921 5923 5924 5926 5927 5929 5931 5933 5935 5937 5939 5942 5943 5945 5946 5948 5949 5950 5951 5952 5953 5954 5955 5956 5957 5958 5959 5960 5961 5962 5963 5964 5964 5965
5869 5871 5873 5875 5877 5878 5880 5882 5884 5885 5886 5888 5889 5890 5892 5894 5897 5898 5899 5900 5902 5905 5907 5909 5911 5913 5914 5915 5916 5918 5919 5920 5922 5924 5926 5928 5930 5932 5934 5936 5939 5941 5943 5944 5946 5947 5948 5949 5950 5952 5953 5954 5955 5956 5957 5958 5959 5960 5961 5962 5962 5963 5964
5865 5867 5870 5871 5873 5875 5877 5879 5880 5882 5883 5885 5886 5887 5889 5891 5894 5895 5896 5898 5899 5901 5903 5906 5908 5909 5911 5912 5913 5913 5914 5915 5917 5919 5921 5923 5926 5928 5930 5933 5935 5938 5940 5942 5944 5945 5947 5948 5949 5950 5951 5952 5954 5955 5956 5957 5958 5959 5959 5960 5961 5961 5962
5861 5864 5866 5868 5870 5872 5873 5875 5877 5878 5880 5881 5882 5884 5886 5888 5890 5892 5893 5895 5896 5898 5899 5902 5905 5907 5908 5908 5909 5909 5911 5913 5914 5915 5917 5919 5921 5923 5926 5928 5931 5933 5936 5939 5941 5942 5944 5946 5947 5948 5949 5950 5952 5953 5954 5955 5956 5957 5958 5958 5959 5959 5960
5857 5859 5861 5864 5866 5868 5870 5872 5874 5875 5876 5878 5879 5881 5883 5885 5887 5889 5890 5892 5893 5895 5896 5898 5901 5903 5904 5904 5904 5906 5909 5912 5914 5915 5917 5919 5920 5921 5922 5924 5927 5929 5932 5935 5937 5939 5941 5943 5944 5946 5947 5948 5949 5951 5952 5953 5954 5955 5956 5956 5956 5957 5958
5853 5855 5857 5860 5862 5864 5866 5868 5870 5871 5873 5874 5876 5878 5879 5881 5884 5885 5887 5888 5890 5892 5894 5895 5897 5899 5899 5900 5901 5903 5907 5911 5913 5916 5918 5920 5920 5920 5920 5922 5924 5926 5928 5930 5931 5933 5936 5938 5940 5942 5944 5945 5946 5948 5950 5951 5952 5953 5954 5954 5954 5954 5955
5849 5851 5853 5855 5857 5860 5862 5864 5866 5868 5869 5871 5872 5874 5876 5878 5880 5882 5883 5885 5886 5888 5891 5892 5893 5894 5895 5896 5898 5901 5905 5909 5911 5913 5915 5915 5915 5915 5916 5918 5921 5923 5924 5925 5926 5928 5930 5933 5935 5937 5939 5941 5943 5945 5946 5948 5949 5951 5952 5952 5951 5951 5952
5844 5846 5848 5850 5853 5855 5857 5860 5862 5864 5866 5867 5869 5871 5873 5874 5876 5878 5880 5881 5882 5884 5886 5888 5889 5891 5892 5894 5896 5899 5902 5905 5907 5908 5909 5909 5910 5912 5914 5915 5917 5919 5920 5922 5922 5923 5925 5928 5930 5933 5935 5937 5939 5941 5943 5944 5946 5947 5949 5949 5949 5949 5949
5839 5842 5844 5846 5848 5850 5852 5855 5857 5859 5861 5863 5865 5867 5869 5871 5873 5875 5877 5878 5879 5880 5882 5884 5885 5887 5889 5891 5893 5895 5897 5899 5901 5903 5903 5904 5907 5911 5913 5914 5915 5916 5917 5919 5922 5923 5925 5926 5928 5930 5933 5934 5935 5937 5939 5941 5942 5943 5945 5946 5945 5945 5946
5834 5837 5839 5841 5843 5845 5847 5849 5852 5854 5856 5858 5860 5862 5864 5866 5868 5871 5873 5875 5876 5877 5878 5880 5881 5883 5885 5887 5889 5891 5893 5895 5896 5897 5898 5900 5904 5906 5907 5909 5911 5913 5915 5919 5923 5925 5925 5925 5925 5927 5929 5931 5933 5934 5936 5938 5938 5939 5941 5941 5941 5942 5943
5829 5831 5834 5836 5838 5840 5842 5844 5846 5849 5851 5853 5855 5857 5859 5861 5864 5866 5868 5870 5872 5873 5875 5877 5878 5879 5880 5883 5886 5888 5889 5891 5892 5893 5894 5896 5898 5899 5900 5902 5905 5907 5910 5915 5919 5920 5920 5920 5921 5922 5924 5927 5929 5931 5933 5934 5935 5936 5936 5937 5938 5938 5939
5824 5826 5828 5831 5833 5835 5837 5838 5841 5843 5845 5848 5850 5852 5854 5856 5858 5861 5863 5865 5867 5869 5871 5873 5874 5875 5876 5878 5882 5884 5886 5887 5887 5889 5890 5891 5892 5893 5894 5897 5900 5902 5905 5909 5912 5914 5916 5917 5917 5918 5920 5922 5924 5926 5929 5930 5931 5932 5933 5933 5934 5934 5935
5818 5821 5823 5825 5828 5830 5831 5833 5835 5837 5840 5843 5844 5846 5848 5850 5852 5855 5857 5859 5862 5864 5866 5868 5870 5871 5872 5874 5877 5879 5881 5883 5883 5884 5886 5887 5888 5888 5889 5893 5898 5900 5902 5904 5906 5909 5911 5913 5914 5915 5916 5917 5919 5921 5924 5926 5927 5928 5929 5930 5930 5931 5931
5812 5814 5816 5819 5822 5823 5825 5827 5830 5831 5834 5836 5838 5840 5843 5845 5847 5849 5851 5853 5856 5858 5861 5863 5865 5867 5868 5869 5872 5874 5876 5878 5879 5880 5881 5882 5883 5884 5886 5890 5894 5896 5897 5899 5901 5904 5906 5907 5909 5911 5912 5912 5914 5916 5918 5921 5922 5923 5924 5925 5926 5926 5927
5806 5808 5810 5813 5815 5817 5819 5822 5824 5825 5828 5830 5832 5834 5837 5839 5841 5843 5845 5847 5850 5852 5855 5857 5859 5861 5863 5864 5867 5868 5870 5873 5874 5875 5876 5877 5878 5881 5883 5886 5889 5891 5893 5894 5896 5899 5900 5902 5904 5905 5907 5908 5910 5912 5914 5915 5917 5917 5918 5919 5920 5921 5921
5801 5803 5805 5807 5809 5811 5814 5816 5818 5820 5821 5823 5825 5828 5831 5833 5835 5837 5839 5841 5844 5846 5849 5851 5853 5855 5857 5859 5861 5863 5864 5866 5868 5869 5871 5872 5874 5876 5879 5882 5884 5887 5888 5889 5891 5893 5895 5897 5899 5900 5902 5904 5906 5908 5909 5910 5912 5912 5912 5913 5913 5914 5915
5794 5797 5799 5801 5803 5806 5808 5810 5812 5814 5815 5816 5819 5821 5824 5826 5829 5831 5833 5835 5838 5840 5842 5844 5846 5849 5850 5852 5855 5857 5859 5860 5862 5863 5865 5866 5868 5871 5873 5876 5879 5881 5883 5885 5887 5889 5891 5892 5894 5895 5897 5899 5901 5902 5903 5905 5906 5907 5907 5906 5907 5908 5909
5787 5789 5792 5795 5797 5800 5801 5803 5805 5807 5809 5811 5812 5814 5817 5820 5822 5825 5827 5829 5831 5833 5836 5838 5840 5842 5844 5846 5848 5850 5852 5854 5856 5857 5858 5860 5863 5865 5867 5870 5873 5875 5877 5879 5881 5883 5885 5887 5888 5890 5892 5893 5895 5896 5896 5898 5900 5901 5902 5903 5904 5905 5905
5781 5783 5785 5787 5790 5792 5794 5796 5799 5801 5803 5805 5806 5808 5810 5813 5815 5818 5820 5822 5824 5826 5828 5831 5833 5835 5837 5839 5841 5843 5845 5847 5849 5850 5852 5854 5857 5859 5862 5865 5867 5869 5871 5873 5875 5877 5878 5880 5882 5884 5886 5887 5888 5889 5890 5893 5896 5898 5900 5901 5901 5900 5899
5775 5777 5779 5780 5782 5785 5787 5789 5792 5794 5796 5798 5799 5801 5803 5806 5808 5810 5813 5815 5817 5818 5821 5824 5827 5829 5831 5833 5835 5837 5839 5840 5842 5843 5845 5847 5849 5852 5855 5859 5862 5863 5865 5867 5869 5870 5871 5873 5875 5878 5879 5881 5881 5883 5887 5891 5893 5894 5894 5893 5893 5893 5893
5769 5771 5773 5774 5776 5778 5780 5782 5784 5786 5789 5791 5792 5794 5796 5798 5801 5803 5805 5807 5809 5811 5814 5817 5819 5821 5824 5826 5828 5830 5832 5834 5835 5837 5838 5840 5842 5845 5849 5852 5855 5857 5859 5862 5863 5865 5866 5867 5869 5871 5872 5873 5875 5879 5884 5887 5887 5885 5885 5886 5886 5886 5887
5762 5764 5766 5768 5770 5772 5774 5775 5777 5779 5781 5783 5785 5787 5789 5791 5792 5795 5797 5799 5801 5803 5806 5809 5811 5814 5816 5819 5821 5823 5825 5827 5828 5830 5831 5833 5836 5839 5841 5844 5847 5850 5853 5855 5857 5859 5861 5862 5864 5865 5865 5866 5869 5875 5879 5880 5879 5879 5880 5881 5880 5880 5880
5755 5757 5758 5760 5763 5765 5767 5769 5771 5772 5774 5775 5777 5779 5781 5783 5784 5786 5788 5791 5793 5795 5798 5801 5803 5806 5808 5811 5813 5815 5817 5819 5821 5823 5825 5828 5830 5832 5834 5837 5840 5843 5847 5849 5850 5852 5854 5856 5858 5859 5859 5860 5864 5869 5872 5873 5873 5874 5875 5875 5874 5874 5875
5749 5750 5752 5753 5756 5758 5759 5761 5764 5765 5767 5768 5769 5771 5773 5774 5776 5777 5779 5782 5784 5786 5789 5792 5795 5798 5800 5802 5805 5807 5809 5811 5813 5815 5818 5821 5823 5825 5828 5830 5832 5835 5839 5842 5844 5845 5847 5850 5852 5854 5854 5856 5859 5862 5864 5865 5867 5868 5868 5869 5869 5869 5869
5742 5744 5745 5747 5748 5750 5752 5754 5756 5758 5759 5761 5762 5763 5764 5766 5767 5769 5770 5772 5774 5777 5779 5782 5785 5789 5792 5794 5796 5799 5801 5803 5805 5807 5810 5813 5816 5818 5821 5823 5825 5828 5831 5834 5836 5839 5841 5844 5846 5848 5849 5850 5853 5855 5857 5858 5859 5860 5861 5862 5862 5862 5862
Wind_Speed
26 27 25 24 25 25 25 26 27 27 24 21 20 18 16 16 17 19 19 20 21 23 24 25 26 25 22 19 17 17 18 19 19 18 18 17 16 15 14 13 12 12 11 11 11 11 10 10 10 10 10 10 10 9 9 9 8 8 7 7 6 6 6
26 27 26 25 26 27 27 28 28 26 23 22 22 21 19 18 18 19 20 21 22 23 25 26 27 26 24 21 19 19 20 20 19 19 19 18 17 16 15 14 13 13 12 12 12 11 11 10 10 9 9 9 9 8 8 8 7 7 7 6 6 5 5
26 27 27 26 27 27 27 26 26 25 23 23 23 23 22 20 20 21 23 24 24 24 25 26 27 27 25 22 20 21 22 22 21 20 20 20 19 18 16 15 14 14 13 13 12 12 11 10 10 9 8 8 8 8 7 7 6 6 6 5 5 5 5
28 27 26 26 26 24 24 25 25 26 27 25 25 24 23 22 23 24 26 26 24 25 25 25 27 28 26 24 23 22 23 23 23 22 21 21 20 19 18 17 16 15 15 14 13 12 11 10 10 9 8 8 7 7 7 7 6 6 5 5 5 5 4
29 27 26 26 25 23 23 25 26 28 30 28 26 26 25 25 25 25 24 23 23 24 24 25 26 28 28 26 24 24 24 25 24 23 22 22 21 21 20 19 17 16 16 15 13 13 12 11 10 9 8 8 8 7 7 7 6 6 6 5 5 5 5
29 27 26 27 26 25 25 25 24 26 28 27 25 25 27 28 28 26 23 22 23 25 25 24 25 27 27 26 25 24 25 25 25 24 24 23 23 22 22 21 19 18 17 16 15 14 13 12 11 10 10 9 9 8 8 7 7 7 6 6 6 6 5
29 28 28 27 28 28 27 24 20 21 23 23 23 25 27 28 28 26 23 22 24 26 25 24 24 25 26 26 25 24 25 25 25 25 25 25 24 24 23 22 21 20 19 18 17 16 15 14 13 12 11 11 10 9 9 9 9 8 7 7 7 7 6
31 29 29 28 28 29 29 27 24 21 21 21 22 23 25 25 25 24 24 26 27 26 24 24 24 25 26 27 26 26 25 26 25 24 24 25 25 25 24 24 23 22 21 20 19 18 16 16 15 14 13 12 12 11 11 11 10 10 9 8 8 8 7
32 31 30 29 29 29 29 29 28 26 24 23 22 22 23 23 24 25 27 28 28 25 24 24 25 26 27 27 28 28 27 26 25 25 24 24 25 25 25 25 25 24 23 22 21 20 19 18 16 15 15 14 14 13 12 12 11 11 10 9 9 8 8
33 32 32 31 31 30 29 29 28 27 26 25 25 25 24 24 26 26 26 27 26 24 24 24 25 26 27 27 28 28 28 27 27 26 25 24 24 25 26 27 26 25 25 24 23 22 21 20 18 17 17 16 16 15 14 13 13 12 11 10 10 9 9
35 34 33 32 32 32 30 29 28 28 27 27 28 28 27 27 26 26 27 28 28 26 24 24 23 24 25 27 27 27 28 28 28 27 26 25 25 25 26 27 28 27 27 26 25 24 23 22 20 20 19 18 17 17 16 15 14 13 12 11 10 10 10
36 35 34 34 34 33 31 30 29 28 28 28 29 30 30 28 27 27 29 30 29 26 24 24 24 22 23 25 26 27 28 28 29 29 28 27 26 26 26 27 28 29 29 28 27 26 25 24 23 22 21 20 19 18 17 16 16 15 14 13 12 11 11
37 36 35 34 34 34 32 31 30 30 30 30 31 30 30 29 27 27 27 29 29 27 25 26 25 22 21 22 24 26 28 29 29 30 30 29 28 27 27 27 27 29 29 30 29 28 27 26 25 24 23 22 21 20 19 18 17 17 16 15 14 13 12
39 38 36 35 35 34 32 31 31 32 32 32 32 31 30 29 28 26 25 26 29 29 29 28 26 24 23 24 24 25 26 28 30 30 31 30 30 29 28 27 27 28 29 30 29 29 29 28 27 26 26 25 23 22 21 20 19 18 18 17 16 16 15
42 40 38 36 35 34 33 32 33 33 33 33 32 31 31 29 28 27 26 24 26 28 29 30 29 27 27 27 27 27 27 28 30 31 31 31 31 30 29 28 27 27 28 29 30 30 29 29 29 28 28 27 25 24 23 22 21 20 20 20 19 19 17
44 42 40 38 37 36 34 33 35 36 35 34 33 33 32 30 28 27 27 25 26 27 27 29 30 31 31 30 31 31 30 30 30 31 31 31 32 32 32 31 29 28 28 29 30 30 30 29 29 29 29 28 27 26 25 24 23 22 22 22 22 21 20
46 45 43 41 40 39 37 36 37 38 37 35 34 33 32 31 28 27 26 26 27 28 28 28 29 31 33 34 34 35 35 33 32 31 30 30 31 33 34 34 33 31 29 29 29 30 30 29 29 29 29 29 28 27 27 26 25 24 24 25 25 24 23
47 48 46 45 43 42 41 39 38 39 39 38 36 33 30 30 30 28 26 26 27 28 28 28 28 29 32 36 38 38 37 35 35 34 31 28 28 30 32 34 34 34 32 31 30 30 30 30 30 29 29 29 29 28 27 27 26 26 26 27 27 27 26
46 48 49 47 46 45 44 43 42 41 41 40 39 35 31 30 31 30 29 28 28 28 29 30 31 31 32 35 37 38 36 35 35 35 32 29 28 28 29 30 32 34 35 34 34 33 32 31 30 29 29 29 29 28 27 27 27 27 27 28 29 29 28
45 47 49 49 48 48 47 46 45 44 43 42 42 40 36 33 32 33 32 32 31 30 31 32 34 35 35 35 36 35 33 32 33 33 32 33 33 31 30 30 30 32 35 37 37 37 35 33 32 31 30 29 29 28 27 27 28 27 27 29 30 31 31
44 45 48 49 49 49 49 49 48 47 46 45 45 44 42 39 36 36 36 36 35 34 34 34 36 37 37 36 35 31 28 28 30 32 34 36 36 35 33 32 30 31 34 36 37 39 39 37 36 34 32 31 30 29 28 28 28 27 27 29 31 32 32
44 45 46 47 48 49 50 50 50 50 50 49 48 46 45 44 42 40 40 40 40 39 38 38 38 38 38 37 34 31 28 27 28 32 36 37 36 35 36 35 33 31 33 35 36 36 36 36 37 36 34 34 33 31 29 29 28 28 28 29 32 33 33
46 45 46 46 47 48 49 50 51 51 51 52 52 50 48 47 47 45 44 44 45 44 43 41 40 40 40 39 36 34 34 32 31 32 36 37 36 34 36 37 36 33 33 34 34 32 31 32 34 35 35 36 36 34 32 31 30 30 30 31 33 34 34
47 47 47 47 47 48 49 50 50 51 52 52 53 54 53 51 49 49 48 48 48 48 47 45 43 42 42 42 39 37 38 39 38 36 35 36 36 35 35 37 38 37 34 32 32 32 32 32 33 33 33 35 36 36 35 34 33 33 33 33 34 34 34
48 48 48 48 48 48 48 49 50 50 51 52 52 54 55 54 53 51 51 51 51 51 50 48 47 45 45 44 43 42 41 42 43 42 39 38 37 37 36 35 35 35 34 33 33 33 33 32 32 32 32 32 34 35 36 36 36 35 34 35 35 36 35
49 50 49 49 49 48 49 49 49 50 50 51 52 53 54 55 55 54 53 53 54 54 53 52 50 49 48 48 46 46 45 45 44 44 43 42 41 41 39 35 31 31 33 35 34 32 31 31 31 31 30 30 32 33 35 36 37 36 36 36 37 37 37
49 50 51 50 50 49 50 50 50 50 50 50 51 52 52 53 54 54 54 54 54 54 55 55 54 53 52 51 50 49 48 47 46 45 44 43 43 43 41 37 33 32 33 33 31 30 31 31 30 30 30 29 30 31 33 35 37 37 37 37 38 38 39
50 50 51 51 51 51 51 51 51 51 51 50 51 51 52 52 52 53 54 54 54 54 54 55 56 55 52 50 51 52 52 51 49 47 44 43 43 43 42 40 37 35 36 34 30 29 31 32 32 32 31 30 30 29 31 34 36 38 38 38 38 39 40
52 52 52 52 53 53 52 52 52 53 53 53 52 52 52 52 52 52 53 54 55 55 54 54 56 57 55 51 50 50 52 53 53 52 50 48 46 44 43 43 41 38 38 37 35 33 32 33 34 34 33 32 32 31 31 33 35 37 38 39 39 39 40
55 55 55 55 55 55 54 54 54 54 55 55 55 55 54 53 53 53 53 54 55 55 56 55 56 57 58 56 53 52 52 53 54 55 55 54 51 47 44 43 43 43 42 40 39 38 36 36 37 36 34 34 34 34 35 35 36 37 39 41 41 40 40
55 56 57 57 57 57 57 57 57 56 57 57 58 58 57 56 56 55 55 55 56 56 56 57 57 57 58 59 58 56 55 55 55 56 57 57 55 53 50 45 41 43 45 45 43 42 40 40 39 39 37 37 36 37 38 38 39 40 41 40 39 39 39
51 53 55 57 58 58 59 59 59 59 59 60 60 60 60 60 59 58 57 57 57 58 58 59 59 58 58 59 60 60 59 58 58 58 58 57 57 57 55 50 43 39 41 43 44 45 45 44 43 42 41 40 41 41 41 40 39 40 41 41 39 39 39
48 49 50 53 55 57 58 58 59 60 60 61 62 63 63 63 62 61 61 60 60 60 60 60 61 61 60 60 60 61 61 61 61 60 60 59 59 58 57 56 52 46 41 40 41 43 45 46 46 45 44 45 45 45 43 40 38 38 39 40 41 41 40
49 49 49 50 51 53 55 56 57 58 58 59 61 63 64 64 64 64 64 64 63 63 63 62 62 63 63 63 62 62 63 63 63 63 63 62 62 60 58 58 58 55 50 45 42 42 43 44 44 45 46 47 47 46 43 42 43 43 41 39 40 41 41
52 52 52 51 52 52 53 54 56 57 57 58 59 61 62 64 65 66 66 66 66 66 66 65 65 65 65 65 65 65 65 65 65 65 66 65 64 63 61 60 59 59 56 53 49 46 45 44 43 43 46 47 46 42 41 42 45 46 44 41 40 41 42
54 54 54 54 54 54 54 55 55 56 57 58 59 59 61 62 64 65 66 67 68 68 68 68 68 68 67 67 67 67 67 67 67 67 67 67 66 65 64 63 62 61 59 57 56 54 52 50 47 46 46 47 44 41 40 41 43 44 44 43 42 42 43
54 55 55 55 55 55 55 56 56 57 58 59 60 61 61 61 63 64 65 66 68 69 70 70 70 70 70 69 69 69 69 69 70 70 69 69 68 68 67 66 65 64 62 60 60 59 57 55 53 50 49 48 45 43 42 41 41 42 44 43 42 42 42
50 52 53 53 54 54 54 55 55 56 57 59 61 62 63 63 64 64 65 66 68 69 70 70 71 71 71 71 72 72 71 71 71 71 71 71 70 70 69 69 68 66 65 64 63 61 60 58 56 53 51 50 47 45 43 42 42 42 42 42 42 43 42
Wind_Direction
224 221 221 218 216 216 216 218 216 212 210 206 205 207 209 212 213 211 210 209 206 204 203 202 203 205 208 208 204 200 203 210 210 207 207 209 211 209 203 199 196 195 200 202 200 203 206 206 201 195 192 190 190 189 190 193 195 197 201 202 202 202 199
220 219 222 219 217 217 215 215 216 216 214 210 209 210 208 210 213 210 211 212 208 206 206 204 204 206 207 207 203 200 203 210 211 208 207 208 209 211 207 202 198 197 202 204 205 206 207 208 206 200 195 192 193 196 197 200 202 202 204 206 207 206 204
222 218 220 220 220 222 223 221 222 223 220 215 214 213 209 210 212 210 211 212 209 208 207 207 207 207 207 207 204 202 204 209 212 210 208 208 208 209 208 204 200 199 203 207 208 209 209 209 208 204 200 195 196 201 201 202 205 207 210 211 212 213 213
227 222 223 226 225 226 229 229 229 229 222 216 218 217 211 211 214 216 215 211 210 211 208 208 211 209 208 208 205 204 206 209 211 210 209 209 207 207 207 205 202 200 204 209 211 211 211 212 210 208 206 203 201 205 208 208 207 208 212 215 220 223 223
232 228 227 230 230 228 228 228 230 229 219 212 215 216 213 215 219 222 220 214 213 216 213 212 215 213 210 210 208 207 208 211 212 210 210 210 208 208 207 205 203 202 206 210 211 214 215 216 216 214 213 213 212 213 217 220 218 214 213 216 223 229 230
234 235 233 232 233 232 231 231 229 225 217 214 220 223 217 215 218 220 219 215 215 217 215 216 218 218 216 214 212 212 213 215 214 211 210 210 210 210 209 206 204 203 207 211 213 216 219 221 222 222 222 221 222 223 227 233 234 231 225 220 223 228 232
234 237 238 236 236 237 239 241 235 227 223 224 230 231 219 211 216 221 218 217 217 215 213 215 219 221 220 219 218 218 220 222 221 216 212 211 212 212 211 209 207 206 208 212 214 216 220 223 225 227 228 228 228 230 234 240 243 243 240 235 230 230 231
232 236 238 238 240 242 245 248 248 245 239 234 234 234 227 221 225 230 227 221 215 210 210 214 219 221 221 221 220 220 223 227 229 226 220 216 215 215 214 213 211 209 209 212 215 217 220 223 226 228 231 233 233 234 236 240 244 246 246 244 240 237 235
229 233 236 237 239 242 246 249 250 250 247 243 240 240 239 234 234 239 236 222 209 206 210 214 218 220 220 220 220 221 222 225 231 234 231 226 222 220 219 218 216 213 212 214 216 217 220 223 225 228 231 234 236 236 237 239 242 243 242 243 243 242 240
227 230 234 237 238 240 244 246 248 248 246 245 244 245 245 241 240 240 233 221 216 216 215 216 220 221 220 221 222 223 223 224 228 233 235 234 231 228 226 225 222 219 216 218 220 220 221 223 225 227 231 235 237 237 238 239 239 239 238 239 240 241 242
227 230 233 236 239 240 242 244 246 247 245 243 242 243 243 244 245 238 228 227 232 230 224 222 225 224 222 222 224 225 226 227 229 231 234 236 236 234 233 232 230 226 223 222 223 224 224 225 226 227 230 233 237 238 239 240 240 239 238 238 239 239 239
227 230 232 235 237 239 241 242 244 244 244 243 242 242 241 243 246 240 232 232 234 232 230 227 225 225 225 226 226 226 227 228 229 232 234 236 238 238 237 237 236 234 231 228 227 228 229 229 228 229 231 233 236 239 240 241 241 240 238 239 241 242 239
226 228 231 233 235 237 238 241 242 242 242 242 241 241 240 241 245 243 236 233 231 231 231 229 228 231 232 231 230 230 230 230 230 231 233 235 238 240 240 240 241 241 239 235 233 232 233 234 233 233 233 234 235 237 240 242 242 242 241 240 241 243 242
224 226 228 230 232 234 236 238 240 239 240 240 240 241 240 240 242 242 238 235 233 233 232 231 232 234 233 235 234 232 233 233 232 232 232 234 237 240 243 243 244 245 246 244 241 238 238 238 238 238 238 237 237 238 239 241 243 243 243 242 242 243 244
222 224 224 226 228 230 232 236 238 238 238 237 237 239 240 239 239 237 237 239 238 237 235 234 232 230 230 233 234 232 232 232 231 232 232 234 236 238 242 244 245 247 249 250 249 246 244 243 242 243 243 242 241 241 242 242 243 244 244 244 243 244 245
220 222 223 223 225 226 227 231 236 237 237 236 236 238 240 241 239 232 229 236 242 243 240 237 234 232 231 232 233 233 231 228 227 227 228 231 234 236 238 240 243 245 247 250 252 251 251 249 248 248 248 248 247 246 246 246 245 246 247 247 246 246 247
219 221 222 222 223 224 225 228 233 236 237 236 235 237 240 241 241 234 227 230 239 245 245 243 239 235 234 234 234 234 234 233 230 227 226 228 230 233 235 236 238 241 242 245 249 251 252 253 253 252 252 253 252 251 250 249 248 247 248 250 250 250 250
219 221 222 223 223 224 224 226 230 234 238 237 235 235 237 241 243 241 235 233 236 242 247 249 247 241 237 235 235 235 236 238 237 235 233 233 234 235 236 237 238 239 240 242 244 247 249 250 251 253 255 256 256 255 254 253 251 249 249 251 252 253 253
220 221 223 224 224 224 224 226 228 231 235 239 238 234 231 236 242 243 242 241 238 240 245 249 249 245 240 238 238 238 238 238 240 240 239 242 246 244 241 242 242 241 240 239 240 241 243 245 246 247 250 253 255 256 257 256 255 252 250 252 253 254 254
223 223 224 226 226 226 226 226 228 230 232 236 240 237 230 230 238 242 243 245 244 243 246 248 248 246 246 245 244 245 246 243 240 240 241 244 247 246 241 242 244 243 241 238 238 239 239 240 242 242 243 246 249 251 254 255 256 255 254 254 255 255 255
227 226 226 227 228 228 228 228 229 230 231 233 237 240 235 230 231 237 241 244 246 247 248 248 248 249 250 252 253 254 258 254 243 240 242 243 246 248 246 245 245 244 243 239 238 239 239 238 240 240 241 243 244 246 248 251 253 254 254 255 256 257 257
232 230 229 229 230 230 230 231 231 232 232 233 234 238 239 234 230 231 236 240 244 247 249 250 251 251 251 255 259 258 258 254 246 242 243 244 247 250 251 250 250 249 249 245 241 243 245 245 244 244 243 244 244 245 245 247 250 251 251 252 254 257 258
235 233 232 231 232 233 233 233 233 233 234 234 235 236 239 239 235 232 233 236 240 244 247 249 252 254 253 254 258 258 256 252 247 244 245 246 247 248 248 249 250 250 252 250 246 249 253 253 252 251 249 248 247 247 246 246 247 249 249 250 252 254 257
238 237 236 235 234 235 235 235 235 235 235 235 236 237 238 240 240 237 235 236 238 241 244 247 249 254 256 256 255 256 256 254 249 247 248 249 249 248 248 248 246 246 248 246 243 245 251 252 251 251 250 250 250 250 249 246 245 245 247 249 251 253 255
241 241 240 238 238 237 238 238 237 237 236 236 237 238 239 240 242 241 239 238 238 240 242 245 247 251 256 257 255 254 254 254 254 252 251 251 251 252 253 252 248 246 246 243 240 244 249 251 251 250 249 249 250 250 250 248 247 245 245 247 249 251 252
244 244 243 242 241 241 241 240 240 239 238 238 238 238 239 241 242 243 243 241 240 240 241 244 246 249 253 256 256 254 253 253 255 255 254 254 254 253 254 254 253 251 249 245 243 244 247 249 251 252 251 250 250 249 249 249 249 248 247 247 248 250 252
245 245 245 244 243 243 243 242 242 242 241 240 239 239 239 241 242 243 244 244 243 242 242 243 246 249 251 252 253 253 253 252 254 255 256 256 256 255 255 256 256 254 253 252 249 245 244 246 248 250 251 250 249 249 250 250 249 248 248 248 248 250 252
245 245 245 245 245 245 244 244 244 244 244 243 242 241 240 241 241 242 243 244 244 244 243 243 244 246 248 248 249 250 251 251 251 251 252 253 255 256 256 258 259 258 257 259 257 250 246 247 248 248 247 248 249 251 252 251 249 247 247 246 247 249 251
244 245 245 246 245 245 246 246 246 246 246 246 244 243 242 241 241 241 242 243 243 244 243 242 242 243 244 245 245 246 248 249 249 249 250 252 253 254 255 256 257 259 260 260 260 257 252 251 252 251 248 250 253 255 255 254 252 249 247 246 245 246 249
245 245 245 246 246 246 246 247 247 247 247 248 247 246 244 243 242 241 241 242 242 242 243 242 241 241 242 243 244 244 244 246 247 248 249 250 251 252 254 254 254 255 257 258 259 258 256 255 255 254 251 250 253 255 255 255 254 252 250 247 245 244 246
247 247 247 247 247 247 247 247 247 247 248 248 248 248 247 246 245 243 242 242 242 242 242 242 242 241 241 241 243 243 244 244 245 245 247 248 249 249 251 253 253 252 253 254 256 257 257 257 258 257 254 253 255 255 253 252 254 255 252 250 249 248 248
248 248 249 249 248 248 249 249 248 248 248 248 248 249 249 249 248 247 246 244 243 242 242 242 242 242 241 241 241 242 243 244 245 245 246 246 247 247 248 250 251 251 250 250 251 253 255 256 257 258 257 256 257 257 254 253 259 262 256 251 252 252 250
247 247 248 249 249 249 250 250 250 250 250 250 249 249 249 249 249 249 248 247 246 245 243 243 242 242 242 241 241 241 242 243 244 245 246 246 246 247 247 246 247 249 250 248 248 250 252 253 254 256 257 257 257 258 258 258 264 267 259 251 250 251 251
248 248 248 248 248 249 249 250 251 251 251 251 251 250 250 250 250 249 249 249 249 248 246 245 244 243 243 243 242 242 242 242 243 244 245 246 246 247 247 246 245 246 248 249 249 249 250 252 253 254 255 256 256 258 261 261 262 264 265 260 254 253 252
251 251 251 250 250 249 249 250 250 251 252 252 252 252 251 251 251 250 250 249 249 249 249 248 247 246 245 244 244 244 243 243 243 243 243 244 246 246 247 247 246 245 246 247 248 249 249 250 252 252 253 254 255 257 260 261 260 263 268 267 261 257 256
252 253 253 254 253 253 252 252 251 251 252 252 253 253 252 252 252 252 251 250 250 249 249 249 249 248 248 247 246 245 245 245 244 244 244 244 245 246 246 246 247 246 246 246 247 248 249 249 250 251 252 254 255 256 258 259 260 261 264 265 264 262 260
253 253 254 255 255 255 255 255 254 254 254 254 254 254 254 254 254 253 253 252 251 250 249 249 249 249 249 249 248 247 247 246 246 246 245 245 245 246 246 247 247 248 247 247 248 249 249 250 251 252 254 255 256 257 257 257 258 259 260 261 262 262 261
252 253 254 255 256 256 256 256 257 257 256 256 256 256 256 256 256 256 255 254 253 252 250 249 249 248 248 248 249 249 248 248 248 247 247 246 245 246 246 247 248 248 249 249 248 249 250 251 252 252 253 254 255 257 258 257 257 257 258 259 258 258 260